Location: *
(44.1392°N, 4.8079°E)
Time: 08:40:04
(UTC+00:00)

X-37B - Pass Details

Date: 21 June 2021
Orbit: 383 x 392 km, 45.0° (Epoch: 01 July)

Event Time Altitude Azimuth Distance (km) Brightness Sun altitude
Exits shadow 01:05:29 77° 360° (N) 398 0.6 -19.8°
Maximum altitude 01:05:30 77° 6° (N) 398 0.6 -19.8°
Drops below altitude 10° 01:08:40 10° 93° (E) 1,406 3.6 -19.6°
Sets 01:10:44 0° 95° (E) 2,260 4.7 -19.5°
